When you browse on this site, cookies collect data to enhance your experience and personalize the content and advertising you see.
Visit our Privacy Policy to learn more. By continuing to use the site, you agree to this use of cookies and data.
  • In Slovakia
  • List of Countries
  • For 7 days
  • Water Temperature
  • Satellite Maps
  • Weather Map
  • Weather Widgets
  • user-avatar
    Login

    Hourly Weather Armawir

    Today, 25 June, Tuesday

    Time Temperature Precipitation Wind Pressure Humidity
    00:00 +25°C° 0 mm 2 mps 688 mmHg 57%
    01:00 +25°C° 0 mm 2 mps 688 mmHg 57%
    02:00 +24°C° 0 mm 2 mps 688 mmHg 57%
    03:00 +24°C° 0 mm 2 mps 688 mmHg 56%
    04:00 +24°C° 0 mm 2 mps 688 mmHg 56%
    05:00 +25°C° 0 mm 2 mps 688 mmHg 55%
    06:00 +25°C° 0 mm 2 mps 688 mmHg 54%
    07:00 +27°C° 0 mm 2 mps 689 mmHg 49%
    08:00 +29°C° 0 mm 2 mps 689 mmHg 45%
    09:00 +31°C° 0 mm 2 mps 689 mmHg 40%
    10:00 +32°C° 0 mm 2 mps 689 mmHg 37%
    11:00 +34°C° 0 mm 1 mps 689 mmHg 33%
    12:00 +35°C° 0 mm 1 mps 689 mmHg 30%
    13:00 +36°C° 0 mm 1 mps 689 mmHg 28%
    14:00 +36°C° 0 mm 1 mps 689 mmHg 26%
    15:00 +37°C° 0 mm 1 mps 689 mmHg 24%
    16:00 +38°C° 0 mm 2 mps 689 mmHg 26%
    17:00 +37°C° 0 mm 3 mps 689 mmHg 29%
    18:00 +36°C° 0 mm 3 mps 688 mmHg 31%
    19:00 +34°C° 0.1 mm 3 mps 689 mmHg 36%
    20:00 +31°C° 0.1 mm 3 mps 689 mmHg 42%
    21:00 +29°C° 0.1 mm 3 mps 689 mmHg 47%
    22:00 +28°C° 0 mm 2 mps 689 mmHg 49%
    23:00 +27°C° 0 mm 2 mps 689 mmHg 51%

    Tomorrow, 26 June, Wednesday

    Time Temperature Precipitation Wind Pressure Humidity
    00:00 +26°C° 0 mm 2 mps 689 mmHg 53%
    01:00 +25°C° 0 mm 2 mps 689 mmHg 53%
    02:00 +25°C° 0 mm 2 mps 689 mmHg 53%
    03:00 +24°C° 0 mm 2 mps 688 mmHg 53%
    04:00 +25°C° 0 mm 2 mps 689 mmHg 52%
    05:00 +25°C° 0 mm 2 mps 689 mmHg 51%
    06:00 +26°C° 0 mm 2 mps 689 mmHg 50%
    07:00 +28°C° 0 mm 2 mps 689 mmHg 46%
    08:00 +29°C° 0 mm 2 mps 689 mmHg 41%
    09:00 +31°C° 0 mm 1 mps 689 mmHg 37%
    10:00 +33°C° 0 mm 1 mps 689 mmHg 34%
    11:00 +34°C° 0 mm 1 mps 689 mmHg 31%
    12:00 +35°C° 0 mm 1 mps 689 mmHg 29%
    13:00 +36°C° 0 mm 1 mps 689 mmHg 27%
    14:00 +38°C° 0 mm 2 mps 689 mmHg 25%
    15:00 +39°C° 0 mm 2 mps 689 mmHg 23%
    16:00 +37°C° 0 mm 3 mps 688 mmHg 27%
    17:00 +36°C° 0 mm 4 mps 688 mmHg 32%
    18:00 +35°C° 0 mm 5 mps 687 mmHg 36%
    19:00 +32°C° 0.5 mm 4 mps 687 mmHg 44%
    20:00 +29°C° 0.5 mm 3 mps 687 mmHg 52%
    21:00 +26°C° 0.5 mm 2 mps 687 mmHg 60%
    22:00 +26°C° 0.2 mm 2 mps 687 mmHg 61%
    23:00 +25°C° 0.2 mm 2 mps 687 mmHg 62%

    Day after tomorrow, 27 June, Thursday

    Time Temperature Precipitation Wind Pressure Humidity
    00:00 +25°C° 0.2 mm 2 mps 687 mmHg 63%
    01:00 +24°C° 0.2 mm 2 mps 687 mmHg 64%
    02:00 +24°C° 0.2 mm 2 mps 687 mmHg 65%
    03:00 +23°C° 0.2 mm 2 mps 687 mmHg 67%
    04:00 +23°C° 0.4 mm 2 mps 687 mmHg 66%
    05:00 +23°C° 0.4 mm 2 mps 687 mmHg 66%
    06:00 +24°C° 0.4 mm 1 mps 687 mmHg 65%
    07:00 +25°C° 0 mm 1 mps 687 mmHg 59%
    08:00 +27°C° 0 mm 1 mps 687 mmHg 52%
    09:00 +29°C° 0 mm 1 mps 687 mmHg 46%
    10:00 +30°C° 0.1 mm 1 mps 686 mmHg 42%
    11:00 +32°C° 0.1 mm 1 mps 686 mmHg 38%
    12:00 +33°C° 0.1 mm 1 mps 686 mmHg 34%
    13:00 +34°C° 0 mm 1 mps 686 mmHg 32%
    14:00 +35°C° 0 mm 1 mps 686 mmHg 30%
    15:00 +36°C° 0 mm 1 mps 685 mmHg 28%
    16:00 +36°C° 0 mm 2 mps 685 mmHg 30%
    17:00 +35°C° 0 mm 2 mps 685 mmHg 33%
    18:00 +35°C° 0 mm 3 mps 685 mmHg 35%
    19:00 +31°C° 0.6 mm 3 mps 685 mmHg 43%
    20:00 +29°C° 0.6 mm 3 mps 685 mmHg 51%
    21:00 +26°C° 0.6 mm 2 mps 684 mmHg 60%
    22:00 +26°C° 0.2 mm 2 mps 684 mmHg 63%
    23:00 +25°C° 0.2 mm 2 mps 684 mmHg 66%

    28 June, Friday

    Time Temperature Precipitation Wind Pressure Humidity
    00:00 +24°C° 0.2 mm 2 mps 684 mmHg 69%
    01:00 +24°C° 0.4 mm 2 mps 683 mmHg 70%
    02:00 +23°C° 0.4 mm 2 mps 683 mmHg 71%
    03:00 +23°C° 0.4 mm 2 mps 683 mmHg 73%
    04:00 +23°C° 0.6 mm 2 mps 683 mmHg 72%
    05:00 +23°C° 0.6 mm 2 mps 683 mmHg 71%
    06:00 +23°C° 0.6 mm 2 mps 683 mmHg 71%
    07:00 +25°C° 0.1 mm 2 mps 682 mmHg 64%
    08:00 +26°C° 0.1 mm 1 mps 682 mmHg 58%
    09:00 +28°C° 0.1 mm 1 mps 682 mmHg 52%
    10:00 +29°C° 0.1 mm 1 mps 682 mmHg 48%
    11:00 +31°C° 0.1 mm 1 mps 682 mmHg 43%
    12:00 +32°C° 0.1 mm 1 mps 681 mmHg 39%
    13:00 +34°C° 0.2 mm 2 mps 681 mmHg 37%
    14:00 +34°C° 0.2 mm 2 mps 681 mmHg 35%
    15:00 +35°C° 0.2 mm 2 mps 681 mmHg 33%
    16:00 +30°C° 3.6 mm 2 mps 681 mmHg 47%
    17:00 +27°C° 3.6 mm 2 mps 680 mmHg 62%
    18:00 +23°C° 3.6 mm 2 mps 680 mmHg 76%
    19:00 +23°C° 0.5 mm 2 mps 681 mmHg 79%
    20:00 +21°C° 0.5 mm 2 mps 681 mmHg 81%
    21:00 +22°C° 0.5 mm 1 mps 682 mmHg 83%
    22:00 +22°C° 0 mm 1 mps 682 mmHg 82%
    23:00 +22°C° 0 mm 1 mps 682 mmHg 81%

    29 June, Saturday

    Time Temperature Precipitation Wind Pressure Humidity
    00:00 +22°C° 0 mm 1 mps 682 mmHg 80%
    01:00 +21°C° 0 mm 1 mps 682 mmHg 80%
    02:00 +19°C° 0 mm 0 mps 681 mmHg 81%
    03:00 +19°C° 0 mm 0 mps 681 mmHg 81%
    04:00 +19°C° 0 mm 0 mps 681 mmHg 77%
    05:00 +20°C° 0 mm 0 mps 682 mmHg 74%
    06:00 +20°C° 0 mm 0 mps 682 mmHg 70%
    07:00 +24°C° 0 mm 1 mps 682 mmHg 64%
    08:00 +25°C° 0 mm 1 mps 682 mmHg 58%
    09:00 +27°C° 0 mm 2 mps 681 mmHg 52%
    10:00 +28°C° 0.1 mm 2 mps 681 mmHg 47%
    11:00 +29°C° 0.1 mm 2 mps 681 mmHg 43%
    12:00 +31°C° 0.1 mm 1 mps 681 mmHg 39%
    13:00 +31°C° 0.1 mm 1 mps 681 mmHg 37%
    14:00 +32°C° 0.1 mm 1 mps 681 mmHg 34%
    15:00 +33°C° 0.1 mm 1 mps 680 mmHg 32%
    16:00 +31°C° 0.3 mm 3 mps 680 mmHg 38%
    17:00 +30°C° 0.3 mm 4 mps 680 mmHg 45%
    18:00 +28°C° 0.3 mm 5 mps 679 mmHg 52%
    19:00 +26°C° 0.9 mm 5 mps 680 mmHg 60%
    20:00 +23°C° 0.9 mm 4 mps 680 mmHg 68%
    21:00 +22°C° 0.9 mm 4 mps 681 mmHg 76%
    22:00 +22°C° 0.3 mm 3 mps 681 mmHg 76%
    23:00 +21°C° 0.3 mm 3 mps 681 mmHg 75%

    30 June, Sunday

    Time Temperature Precipitation Wind Pressure Humidity
    00:00 +21°C° 0.3 mm 2 mps 681 mmHg 74%
    01:00 +21°C° 0.1 mm 2 mps 681 mmHg 75%
    02:00 +20°C° 0.1 mm 2 mps 681 mmHg 75%
    03:00 +20°C° 0.1 mm 2 mps 681 mmHg 75%
    04:00 +21°C° 0.3 mm 1 mps 681 mmHg 75%
    05:00 +22°C° 0.3 mm 1 mps 681 mmHg 75%
    06:00 +22°C° 0.3 mm 1 mps 681 mmHg 74%
    07:00 +23°C° 0 mm 1 mps 681 mmHg 68%
    08:00 +24°C° 0 mm 1 mps 681 mmHg 62%
    09:00 +26°C° 0 mm 1 mps 681 mmHg 56%
    10:00 +27°C° 0 mm 1 mps 681 mmHg 51%
    11:00 +29°C° 0 mm 1 mps 681 mmHg 46%
    12:00 +30°C° 0 mm 1 mps 681 mmHg 41%
    13:00 +30°C° 0.3 mm 2 mps 681 mmHg 41%
    14:00 +31°C° 0.3 mm 2 mps 681 mmHg 40%
    15:00 +31°C° 0.3 mm 2 mps 681 mmHg 40%
    16:00 +30°C° 0.8 mm 2 mps 681 mmHg 46%
    17:00 +28°C° 0.8 mm 2 mps 680 mmHg 51%
    18:00 +27°C° 0.8 mm 2 mps 680 mmHg 57%
    19:00 +26°C° 0.4 mm 2 mps 681 mmHg 62%
    20:00 +24°C° 0.4 mm 2 mps 681 mmHg 67%
    21:00 +23°C° 0.4 mm 2 mps 681 mmHg 72%
    22:00 +22°C° 0.4 mm 3 mps 681 mmHg 73%
    23:00 +21°C° 0.4 mm 3 mps 682 mmHg 73%
    Show more